GFSGL_prec_cthk_276.txt.gz
RH
40 34 28 26 27 28 30 32 34 32 29 28 26 26 26 26 27 29 31 32 33 35 42 56 60 65 70 78 76 73 73 83 89 90 89 92 89 81 74 66 64 64 62
33 23 22 24 24 25 25 23 25 25 26 28 29 29 30 32 34 37 38 37 36 36 37 42 50 54 60 64 65 68 71 76 75 88 91 85 86 88 86 79 78 79 79
24 23 21 21 23 26 28 32 33 32 33 34 35 37 38 41 42 42 43 45 43 42 41 40 40 41 43 48 57 65 69 74 81 90 95 92 89 89 89 88 88 86 87
29 27 27 31 35 42 41 40 41 38 37 37 38 38 41 43 44 47 45 44 42 37 36 35 35 36 36 38 41 45 56 67 77 79 83 81 84 90 91 91 88 90 87
33 37 39 40 44 46 50 48 43 42 40 41 41 42 43 44 44 44 40 37 32 28 26 26 21 21 21 22 26 25 28 36 42 53 56 62 70 79 82 88 80 80 73
36 40 40 44 49 52 52 50 44 40 42 42 41 37 39 37 32 28 26 26 23 25 27 27 27 25 25 21 20 21 21 22 25 25 27 28 28 36 43 51 49 44 41
39 41 45 52 54 52 49 46 43 41 38 34 31 30 31 26 23 23 23 28 28 28 27 27 27 31 28 26 27 25 27 26 25 23 27 27 27 27 27 27 26 25 23
47 49 51 52 51 49 49 47 43 37 30 27 23 22 27 25 24 25 24 29 29 29 29 30 31 31 30 27 26 28 28 27 30 28 27 27 27 28 30 30 29 28 27
51 53 53 54 50 47 46 43 38 29 23 20 23 23 26 26 24 24 26 34 37 35 35 36 35 37 36 34 31 33 33 32 36 34 28 26 26 24 24 28 29 33 31
57 55 56 53 50 50 47 39 30 23 21 27 30 28 25 27 26 27 29 38 46 47 44 44 37 32 27 25 25 28 30 36 38 37 37 42 41 38 31 31 32 35 33
58 59 59 55 52 50 40 31 23 24 27 29 32 29 27 28 31 32 34 31 32 30 31 31 32 25 19 19 21 21 25 24 25 26 31 33 34 39 45 45 43 40 39
63 64 61 55 53 42 31 26 26 26 32 34 34 36 39 34 32 26 22 22 21 22 24 25 27 25 23 23 25 29 30 32 37 38 36 37 40 38 36 35 36 41 44
68 68 60 56 46 32 31 28 34 32 37 41 43 43 42 34 26 19 17 18 17 18 20 25 24 25 29 35 42 43 45 49 51 51 50 49 47 46 45 43 40 41 36
74 67 60 50 38 34 30 33 36 37 39 41 42 37 29 25 24 25 26 27 29 28 38 43 44 51 60 62 63 66 68 70 72 72 71 67 63 58 56 54 50 47 45
74 66 57 47 35 31 31 35 34 32 35 36 28 22 21 21 24 21 23 27 35 43 50 56 62 64 67 70 72 72 74 74 76 77 78 79 79 76 68 64 60 56 53
74 62 51 42 34 34 35 32 32 35 31 20 16 16 20 19 22 29 36 42 51 59 61 66 68 71 73 74 74 73 74 76 77 79 82 82 83 82 84 80 71 67 62
63 56 44 39 35 36 36 40 45 34 26 21 17 18 20 27 33 39 44 49 53 57 62 66 68 69 67 68 69 72 76 78 75 75 75 76 81 86 87 87 88 79 69
60 50 42 37 36 38 42 42 34 31 28 30 25 26 33 36 36 38 44 51 58 64 67 66 66 66 73 80 86 87 88 90 92 92 92 90 80 80 83 86 89 89 85
56 45 39 36 38 41 38 37 31 28 24 28 37 40 42 39 40 45 52 57 60 62 62 64 64 75 84 87 88 90 93 95 96 96 96 96 95 94 83 83 87 86 84
49 37 35 37 39 37 37 31 27 26 28 35 39 42 42 41 44 51 58 57 57 58 59 61 78 87 88 90 92 90 84 80 88 97 98 98 98 98 97 90 85 82 82
40 34 36 38 37 35 30 25 23 28 33 38 39 42 40 44 52 51 51 50 50 52 59 74 82 87 90 92 92 85 73 72 81 99 98 98 97 97 97 97 95 87 86
39 40 40 36 32 28 22 24 30 32 36 38 42 46 49 52 53 51 50 49 50 54 65 82 89 93 92 93 83 68 61 57 59 80 97 98 97 97 97 97 98 98 91
42 44 36 31 27 20 24 29 33 35 37 42 48 54 56 58 58 55 52 50 48 56 72 85 93 92 94 91 78 60 56 51 55 67 80 89 96 98 97 98 98 97 97
48 45 35 28 23 24 29 30 36 37 41 48 54 55 56 57 56 54 51 47 47 65 75 86 91 91 93 88 72 57 52 48 56 58 66 74 80 89 96 97 97 97 98
52 38 29 23 24 29 30 35 39 43 46 49 50 51 52 51 52 53 50 44 52 69 79 89 90 91 91 89 68 54 47 51 58 59 62 69 77 81 85 93 97 97 97
42 32 23 23 28 30 36 37 41 43 46 50 52 53 51 51 53 50 42 43 62 80 90 86 88 92 92 87 60 50 47 55 62 63 66 68 72 78 80 82 85 88 90

GFSGL_prec_cthk_279.txt.gz
RH
48 43 35 28 26 31 33 33 33 29 24 23 28 27 28 27 27 30 33 32 34 33 35 37 43 48 53 56 63 66 65 67 66 69 81 85 84 92 89 87 85 81 83
39 35 23 24 28 30 30 31 29 32 26 27 31 33 33 32 35 37 38 39 39 40 38 36 37 36 37 42 49 57 62 62 63 68 75 73 77 90 90 90 89 89 87
28 24 25 26 31 32 33 36 36 34 35 38 37 36 35 36 37 38 39 39 40 40 39 38 36 35 35 35 36 40 45 59 63 69 70 82 85 90 90 87 88 87 82
31 28 28 33 37 39 41 43 44 40 39 37 36 36 36 36 37 38 40 40 37 35 31 30 27 25 26 29 35 33 35 38 42 55 66 70 76 75 77 76 80 88 89
33 31 35 39 44 46 45 42 39 39 37 37 37 38 38 37 34 37 37 32 28 26 25 24 20 19 18 18 20 19 20 23 26 30 34 36 44 52 68 60 62 74 80
38 36 40 45 46 45 41 44 45 40 38 38 36 35 35 32 27 22 23 26 26 25 29 27 26 27 26 22 19 20 21 23 24 24 24 28 28 29 31 32 33 34 38
42 38 44 47 48 45 44 45 43 40 40 39 36 32 31 25 20 21 23 31 30 27 28 28 27 37 31 26 25 26 27 26 25 25 27 29 30 29 29 28 28 33 34
44 43 47 48 51 49 46 44 42 43 40 33 28 26 27 25 22 22 21 28 33 35 34 35 35 38 35 33 29 31 32 33 39 37 36 31 30 28 26 25 25 26 26
48 47 51 54 54 49 48 47 47 39 30 26 25 26 28 29 23 22 21 29 43 45 43 38 34 33 28 25 21 20 21 22 28 31 33 33 32 33 35 36 32 33 29
50 53 56 57 56 54 53 48 37 28 26 30 28 30 27 32 26 25 27 33 40 38 35 34 34 34 31 25 22 19 20 24 27 24 23 25 29 31 34 37 41 41 39
54 58 60 59 57 54 51 40 30 27 30 27 30 36 35 34 33 30 26 22 24 27 23 28 33 32 27 25 21 22 27 27 27 30 35 39 40 40 39 40 42 41 38
60 63 61 63 59 55 46 37 33 28 29 34 36 40 46 46 36 22 19 17 16 16 19 23 32 31 29 31 37 44 47 49 53 54 52 50 47 46 46 45 43 43 40
68 69 68 62 61 55 47 36 30 31 36 42 44 44 44 44 37 28 23 21 20 22 29 35 39 42 46 51 57 56 56 60 64 65 66 66 68 69 69 64 58 53 50
71 74 75 70 65 56 46 39 37 40 40 42 42 37 35 31 31 32 25 26 32 38 45 46 50 55 59 62 65 66 68 68 70 71 70 69 71 72 73 75 74 68 63
82 84 85 77 65 58 42 35 34 35 35 36 34 28 28 27 26 23 25 31 34 37 40 44 54 61 61 60 63 63 63 70 70 71 72 71 70 72 78 79 79 80 79
86 87 80 71 65 52 39 30 31 35 28 24 18 16 21 21 26 29 31 33 36 40 45 55 57 62 60 62 70 75 82 85 87 88 89 90 90 90 84 76 81 84 83
85 84 76 73 63 44 38 39 43 39 36 31 24 23 27 32 31 30 32 38 44 50 54 60 62 63 70 77 83 85 86 87 89 90 91 92 92 92 93 92 89 77 85
85 81 74 70 59 44 41 44 39 43 38 31 31 34 34 34 33 35 41 46 51 57 60 63 66 71 76 83 86 87 88 90 88 81 76 77 86 95 96 96 94 96 83
76 74 73 69 47 42 46 37 38 36 30 32 38 41 39 38 37 45 49 52 55 59 59 60 65 76 84 88 89 90 89 84 72 68 67 68 69 78 97 98 97 97 96
68 67 67 46 38 39 37 36 37 31 32 37 41 44 42 40 49 54 59 58 53 51 53 62 73 83 87 88 89 88 86 77 64 61 60 61 63 76 98 97 98 97 98
64 64 54 38 39 37 35 33 27 31 34 38 42 42 44 51 55 61 60 58 52 52 57 67 75 86 90 88 87 89 82 66 59 55 56 60 69 84 94 98 97 97 98
75 58 41 41 34 29 29 27 32 32 35 40 43 50 52 57 61 59 60 58 52 50 60 73 85 89 88 86 88 85 72 56 51 56 62 63 70 78 85 95 97 97 98
50 41 41 35 34 24 25 31 31 33 38 43 47 54 57 57 57 57 58 51 49 64 78 87 88 87 87 89 86 72 56 51 54 61 60 61 66 73 79 86 96 97 97
45 45 38 35 28 28 30 31 35 38 40 44 49 56 57 58 57 58 51 45 57 63 65 75 84 87 88 89 81 62 50 54 62 62 62 62 65 71 75 83 95 98 97
50 42 36 30 24 31 30 36 40 42 43 44 48 56 57 56 55 54 45 50 52 52 59 78 86 87 89 88 78 57 48 60 64 63 61 65 71 78 79 81 86 95 96
48 40 32 27 30 31 33 38 40 42 45 47 52 55 52 51 56 51 44 47 47 48 59 78 86 88 91 87 70 56 46 53 64 64 63 62 70 81 86 86 90 93 93

GFSGL_prec_cthk_285.txt.gz
RH
45 42 38 40 33 28 27 28 32 34 31 34 36 37 34 32 35 34 35 34 33 34 33 32 31 31 33 34 34 34 36 40 48 53 59 60 64 69 72 75 74 73 78
41 37 36 30 27 25 28 31 31 35 35 37 36 34 33 34 36 36 37 37 36 36 35 34 32 29 28 30 31 33 34 36 40 46 53 57 62 66 70 71 68 72 75
38 38 31 28 25 28 31 35 38 41 40 38 37 37 35 34 35 36 36 35 36 32 29 25 21 23 25 25 24 23 24 28 32 35 43 48 56 59 64 67 69 79 84
44 36 29 28 31 35 39 40 41 40 40 41 40 40 39 36 33 33 34 34 30 29 26 20 20 20 18 20 18 17 17 17 20 23 29 34 39 45 45 58 60 61 76
47 39 34 38 38 39 42 44 43 43 45 45 41 40 35 31 30 31 30 24 22 24 25 24 24 24 25 27 24 21 21 21 21 20 21 23 25 28 32 38 46 53 59
46 38 38 40 42 42 44 46 47 46 46 45 44 40 32 28 25 23 21 21 27 27 28 29 29 31 30 29 26 24 22 21 21 23 23 24 24 26 27 27 27 25 26
46 38 41 44 46 46 45 47 50 52 50 49 46 38 27 21 18 18 19 26 29 32 35 38 35 33 31 30 27 25 21 19 16 14 16 18 19 22 23 24 25 26 23
50 43 46 47 50 52 51 52 56 55 53 52 44 32 25 24 23 20 21 23 32 36 37 37 37 35 31 29 28 28 26 24 21 17 17 19 20 21 23 22 20 19 21
51 48 52 52 53 54 55 58 59 56 54 48 43 31 26 26 24 25 27 25 32 28 28 30 32 30 36 40 41 38 33 31 30 31 31 29 28 27 26 26 25 27 25
54 53 55 54 54 54 58 60 59 58 60 56 45 36 31 30 32 37 33 24 16 14 18 24 25 28 35 38 39 38 39 40 43 44 44 43 46 48 48 49 45 43 41
57 54 56 55 56 62 65 62 58 61 64 62 48 46 41 38 39 34 28 24 20 17 22 26 28 30 32 34 37 38 42 47 51 52 53 54 55 55 55 56 55 54 54
63 58 59 60 64 71 69 61 62 61 61 65 57 46 39 39 38 38 30 25 27 29 27 26 27 31 35 41 43 46 50 52 55 58 58 58 59 59 59 61 60 57 57
68 62 62 65 70 71 66 70 72 69 70 65 48 43 35 32 33 31 29 30 29 26 23 26 30 37 43 48 54 58 59 60 62 65 69 72 78 79 78 78 78 77 72
79 71 69 71 73 71 69 72 75 72 71 60 40 39 34 32 28 26 28 25 22 25 30 32 38 43 47 50 55 62 66 71 76 82 84 85 84 83 82 82 80 81 81
86 85 83 83 81 75 73 71 69 66 63 47 42 34 27 20 19 22 23 25 30 33 36 40 42 44 46 51 59 68 78 82 84 86 87 88 88 86 84 80 73 70 71
82 78 75 75 78 76 74 70 71 64 49 40 33 29 24 25 25 25 28 35 38 41 41 38 37 43 53 61 69 75 83 87 88 86 84 84 82 81 76 72 67 68 66
74 73 75 77 77 73 70 66 64 52 42 37 33 31 29 26 29 32 36 43 46 44 44 46 52 59 69 72 80 84 85 84 83 84 82 81 81 78 74 69 68 66 67
66 70 72 80 73 68 67 67 56 43 39 34 32 31 29 30 34 38 40 42 49 50 51 56 59 65 68 70 75 78 80 83 85 84 77 69 60 55 54 57 61 63 65
66 68 80 76 71 72 70 67 50 41 33 31 30 27 30 34 38 43 45 45 44 48 54 59 62 65 59 67 75 80 82 85 83 76 60 52 57 62 63 64 65 67 70
68 79 75 71 74 69 72 52 40 34 31 30 28 30 34 39 41 43 46 50 50 54 56 55 56 52 57 69 79 83 85 85 75 58 54 61 63 61 60 61 64 69 75
74 73 76 77 73 73 49 37 33 30 28 26 30 35 39 39 41 46 53 49 52 54 56 50 43 47 55 67 83 86 86 72 54 53 59 65 61 61 67 71 72 74 78
78 74 72 73 71 48 38 33 30 28 26 29 36 39 39 42 54 55 49 48 47 53 44 40 45 53 64 76 82 82 69 53 53 57 61 62 63 71 77 78 79 80 87
69 70 80 65 46 37 30 29 30 28 28 35 36 39 40 52 50 47 44 44 48 41 37 39 47 53 62 77 77 74 58 53 55 58 61 68 73 78 80 84 82 88 96
76 70 57 42 34 32 29 29 28 30 33 36 38 42 52 47 44 41 43 44 40 33 32 38 42 51 69 72 78 64 53 51 55 64 67 70 74 74 80 85 84 89 95
71 53 40 34 31 32 30 29 30 35 34 38 44 49 49 43 43 44 41 36 32 25 30 41 54 65 76 83 77 57 53 60 68 67 71 76 81 82 75 84 90 92 91
63 51 42 36 32 31 31 30 32 33 38 41 47 52 46 41 39 38 39 30 24 22 30 45 56 75 82 85 73 55 61 70 73 76 82 84 84 86 82 83 83 85 89

GFSGL_prec_cthk_291.txt.gz
RH
50 50 46 52 52 48 37 31 30 32 34 33 31 30 29 31 32 33 33 33 33 32 31 29 25 23 23 25 27 29 31 33 37 37 38 45 48 52 54 57 61 70 75
48 47 47 51 52 44 29 30 32 37 38 34 35 35 37 37 36 33 32 31 29 25 26 25 19 18 19 20 20 19 20 25 30 34 34 36 46 49 55 56 60 63 68
49 50 52 53 48 35 33 32 36 37 37 39 41 41 43 43 42 38 32 28 29 27 25 20 18 19 19 18 18 17 17 17 17 19 27 31 35 38 47 55 55 61 60
46 50 54 53 44 33 36 35 36 38 39 42 43 45 50 49 46 42 40 40 34 27 22 22 21 23 24 25 24 22 20 20 19 19 19 19 23 33 36 39 47 47 60
44 51 54 49 40 33 39 41 42 43 47 46 48 51 54 57 53 48 45 41 29 25 25 25 26 27 29 29 29 26 25 24 23 22 21 21 20 21 23 29 38 41 52
44 50 51 49 42 36 40 43 46 49 50 50 51 52 56 55 54 50 44 36 31 28 30 34 36 32 26 25 24 24 24 24 23 21 19 18 16 16 17 19 21 22 25
52 55 55 53 47 43 47 52 51 53 56 54 55 57 57 56 51 48 48 43 40 35 36 37 30 28 28 29 29 30 32 31 31 27 25 26 24 22 20 18 18 19 21
60 63 62 59 54 53 56 55 56 57 57 63 62 55 55 56 53 52 48 47 44 34 31 24 24 27 33 34 34 35 32 31 32 30 32 36 37 36 35 32 26 22 19
60 64 67 64 61 60 62 60 59 59 57 67 59 58 60 60 60 60 45 34 31 32 27 25 23 24 26 26 29 34 33 35 37 37 40 42 43 45 46 43 42 38 35
74 80 79 79 71 66 67 64 63 61 64 66 61 61 65 68 71 64 48 35 32 28 26 25 24 23 23 24 29 32 35 38 39 41 41 45 49 50 52 54 49 45 44
83 96 93 91 85 77 76 72 66 68 66 66 59 62 65 65 67 54 39 35 31 28 25 23 23 22 24 30 35 38 41 44 48 52 52 53 58 57 57 58 58 57 57
73 65 66 85 80 78 78 77 74 71 69 68 66 66 64 65 69 53 40 35 32 24 25 26 26 28 31 36 39 43 45 50 55 61 63 66 70 71 72 77 78 76 76
68 71 77 81 79 80 79 79 80 70 72 75 74 71 69 67 52 38 32 30 24 26 28 30 32 34 37 41 47 51 54 59 69 70 71 75 78 79 80 83 84 84 84
66 69 70 72 72 71 69 76 76 71 70 72 72 69 65 55 38 29 26 24 27 30 32 35 38 39 41 44 46 54 57 63 68 73 75 76 77 81 84 86 87 87 83
69 76 74 70 66 67 64 66 67 69 70 71 67 64 53 33 31 28 26 29 32 35 36 39 42 49 49 49 51 54 53 60 64 69 74 76 78 78 82 83 82 80 76
70 73 68 63 69 70 62 60 65 69 72 72 62 56 40 35 30 29 29 31 33 34 38 42 45 48 48 47 46 48 53 53 59 72 80 83 83 80 73 64 59 56 56
63 66 64 66 69 71 67 65 68 70 78 68 62 46 37 30 30 29 32 34 37 40 42 43 43 45 45 42 45 51 54 63 73 73 74 67 60 57 57 57 59 61 62
60 60 64 70 71 71 68 71 73 71 70 65 56 37 30 30 31 31 34 37 39 42 43 43 45 45 42 43 46 50 57 68 67 60 58 55 56 59 63 66 68 67 67
61 64 66 72 76 69 66 75 76 77 71 70 38 30 28 30 31 32 35 37 38 39 39 42 41 37 36 42 50 55 59 58 55 57 53 56 65 68 69 72 73 75 75
62 64 68 73 75 71 71 76 76 73 68 39 29 27 28 30 32 34 38 36 34 37 41 35 30 30 37 49 57 66 69 59 58 55 61 66 68 67 69 75 78 80 80
65 69 73 77 74 72 75 76 73 67 42 31 26 27 30 31 34 38 36 33 37 38 34 27 23 30 47 58 69 72 62 60 60 64 71 69 67 68 75 79 81 82 85
71 72 77 74 72 77 75 74 70 46 32 25 26 29 31 33 40 40 35 35 36 34 24 19 20 29 50 67 75 69 59 66 67 73 74 75 76 77 81 85 87 87 87
78 75 79 72 76 74 74 67 52 33 25 26 28 31 35 39 42 37 36 36 32 23 19 18 20 29 51 73 79 60 62 64 71 76 75 78 82 85 88 91 93 93 92
86 85 82 81 78 75 74 56 34 26 28 29 31 35 42 43 39 39 36 33 23 19 17 18 21 30 47 74 81 63 62 64 71 76 77 76 79 85 85 90 95 96 95
84 83 84 78 75 76 63 36 31 30 29 31 33 39 44 39 40 44 40 30 20 17 16 17 22 33 66 82 82 68 63 65 68 75 78 77 77 82 85 90 96 96 96
88 89 83 80 81 64 40 29 32 31 32 33 36 40 44 47 48 46 37 25 19 18 16 15 22 29 50 83 85 77 65 64 67 71 72 71 78 87 91 94 94 87 95